Home > Weather > Annapolis > Past weeks

Flag for USA Past Weather in Annapolis, Maryland, USA — Yesterday and Last 2 Weeks

Now
72 °F

Clear.


Feels Like: 71 °F
Forecast: 71 / 87 °F
Wind: 8 mph from South

Location: Annapolis - United States Naval Academy

Current Time: Aug 25, 2016 at 7:54:14 AM

Latest Report: Aug 25, 2016 at 6:54 AM


Visibility: 10 mi

Pressure: 30.13 "Hg

Humidity: 84%

Dew Point: 67 °F

Location of AnnapolisLocation

Past Weather in Annapolis — Graph

°F

Annapolis Temperature Yesterday

Maximum temperature yesterday: 83 °F (at 3:54 PM)
Minimum temperature yesterday: 69 °F (at 4:54 AM)
Average temperature yesterday: 76 °F

High & Low Weather Summary for the Past Weeks

 TemperatureHumidityPressure
High95 °F (Aug 12, 3:54 PM)94% (Aug 20, 4:54 AM)30.35 "Hg (Aug 20, 4:54 AM)
Low67 °F (Aug 23, 5:54 AM)43% (Aug 22, 2:54 PM)29.72 "Hg (Aug 21, 3:54 PM)
Average81 °F69%30.04 "Hg
* Reported Aug 10 6:54 AM — Aug 25 6:54 AM, Annapolis, Weather by CustomWeather, © 2016

Note: Actual official high and low records may vary slightly from our data, if they occured in-between our weather recording intervals... More about our weather records

Advertising

Annapolis Weather History for the Previous 24 Hours

Scroll right to see more
 ConditionsComfort  
Time TempWeatherWind HumidityBarometerVisibility
6:54 AM
Thu, Aug 25
72 °FClear.8 mph84%30.13 "Hg10 mi
5:54 AM72 °FClear.6 mph81%30.12 "Hg10 mi
4:54 AM72 °FClear.3 mph81%30.13 "Hg10 mi
3:54 AM74 °FPassing clouds.6 mph74%30.13 "Hg10 mi
2:54 AM74 °FPassing clouds.9 mph71%30.14 "Hg10 mi
1:54 AM74 °FClear.8 mph74%30.15 "Hg10 mi
12:54 AM74 °FClear.3 mph69%30.17 "Hg10 mi
11:54 PM
Wed, Aug 24
75 °FClear.5 mph64%30.18 "Hg10 mi
10:54 PM76 °FClear.6 mph62%30.19 "Hg10 mi
9:54 PM76 °FClear.3 mph64%30.19 "Hg10 mi
8:54 PM78 °FClear.6 mph60%30.19 "Hg10 mi
7:54 PM79 °FSunny.10 mph60%30.18 "Hg10 mi
6:54 PM80 °FSunny.10 mph60%30.18 "Hg10 mi
5:54 PM81 °FSunny.10 mph58%30.19 "Hg10 mi
4:54 PM82 °FSunny.12 mph58%30.20 "Hg10 mi
3:54 PM83 °FSunny.13 mph59%30.21 "Hg10 mi
2:54 PM82 °FSunny.14 mph58%30.24 "Hg10 mi
1:54 PM81 °FSunny.15 mph62%30.26 "Hg10 mi
12:54 PM82 °FSunny.9 mph56%30.27 "Hg10 mi
11:54 AM81 °FSunny.8 mph54%30.28 "Hg10 mi
10:54 AM79 °FSunny.8 mph56%30.30 "Hg10 mi
9:54 AM77 °FScattered clouds.6 mph62%30.31 "Hg10 mi
8:54 AM75 °FSunny.6 mph64%30.32 "Hg10 mi
7:54 AM72 °FSunny.No wind73%30.31 "Hg10 mi
Weather by CustomWeather, © 2016

See weather overviewHow to use our weather pages